This is the latest recevied weather packets stored in our database for station/object PU5BHV. If no packets are shown the sender has not sent any weather packets the latest 10 day(s).
| Time | Temp. | Humidity | Pressure | Rain* | Wind** | Luminosity | Snow |
|---|---|---|---|---|---|---|---|
| 1777641069 | 22.78° C | 85% | 1021.1 hPa | 0 mm | - | 294 W/m² | - |
| 1777640765 | 22.78° C | 84% | 1021.2 hPa | 0 mm | - | 376 W/m² | - |
| 1777640463 | 22.78° C | 85% | 1021.2 hPa | 0 mm | - | 319 W/m² | - |
| 1777640159 | 22.22° C | 86% | 1021.3 hPa | 0 mm | - | 348 W/m² | - |
| 1777639856 | 22.22° C | 87% | 1021.3 hPa | 0 mm | - | 297 W/m² | - |
| 1777639554 | 22.22° C | 86% | 1021.3 hPa | 0 mm | - | 284 W/m² | - |
| 1777639250 | 22.22° C | 87% | 1021.2 hPa | 0 mm | - | 247 W/m² | - |
| 1777638946 | 21.11° C | 90% | 1021.3 hPa | 0 mm | - | 348 W/m² | - |
| 1777638642 | 20.56° C | 91% | 1021.3 hPa | 0 mm | - | 221 W/m² | - |
| 1777638339 | 21.11° C | 90% | 1021 hPa | 0 mm | - | 165 W/m² | - |
| 1777638035 | 20.56° C | 90% | 1021.2 hPa | 0 mm | - | 154 W/m² | - |
| 1777637732 | 20.56° C | 91% | 1021.1 hPa | 0 mm | - | 161 W/m² | - |
| 1777637428 | 20.56° C | 92% | 1021.2 hPa | 0 mm | - | 168 W/m² | - |
| 1777637126 | 20.56° C | 92% | 1021.1 hPa | 0 mm | - | 156 W/m² | - |
| 1777636822 | 20° C | 92% | 1021.2 hPa | 0 mm | - | 150 W/m² | - |
| 1777636518 | 20° C | 92% | 1021.3 hPa | 0 mm | - | 143 W/m² | - |
| 1777636214 | 20° C | 93% | 1021.2 hPa | 0 mm | - | 154 W/m² | - |
| 1777635909 | 20° C | 93% | 1021.2 hPa | 0 mm | - | 127 W/m² | - |
| 1777635605 | 19.44° C | 94% | 1021.2 hPa | 0 mm | - | 167 W/m² | - |
| 1777635302 | 19.44° C | 96% | 1021.3 hPa | 0 mm | - | 114 W/m² | - |
| 1777634998 | 18.89° C | 97% | 1021.1 hPa | 0 mm | - | 103 W/m² | - |
| 1777634695 | 18.89° C | 98% | 1021.1 hPa | 0 mm | - | 82 W/m² | - |
| 1777634393 | 18.89° C | 98% | 1021.3 hPa | 0 mm | - | 85 W/m² | - |
| 1777634089 | 18.89° C | 99% | 1021.1 hPa | 0 mm | - | 122 W/m² | - |
| 1777633785 | 18.89° C | 99% | 1021 hPa | 0 mm | - | 62 W/m² | - |
* Rain latest hour (hover to see other rain measurements)
** Current wind speed in m/s (hover to see current wind gust speed)